Wetbulb
74.52 76.26 78.27 78.60 78.95 78.85 78.27 77.81 77.26 76.98 76.65 76.85 76.63 76.05 76.30 76.45 76.85 77.26 76.48 76.68 76.88 76.95 76.65 76.36 76.15 75.77 75.04 74.25 74.42 75.11 75.47 75.54 74.91 74.04 73.75 73.28 73.31 73.36 73.03 72.73 72.23 71.57 72.98
75.97 76.11 77.78 78.36 78.62 78.72 78.17 77.61 77.13 76.70 76.64 76.97 76.65 76.25 76.42 76.52 76.95 76.90 76.55 76.88 77.06 77.35 76.91 76.35 75.95 75.44 74.48 74.06 74.28 74.37 74.37 75.21 75.18 74.40 73.83 73.49 73.19 72.92 72.56 72.80 74.01 71.59 72.32
76.00 76.41 76.85 78.06 78.64 78.44 77.86 77.36 76.85 76.60 76.87 76.87 76.55 76.25 76.42 76.55 76.78 77.00 76.48 76.76 76.98 76.94 76.32 75.71 75.42 75.07 74.43 74.30 74.11 74.17 74.12 74.38 74.23 74.25 74.13 71.27 71.35 72.98 72.59 72.69 72.57 72.21 72.20
76.91 76.28 76.31 78.08 78.26 78.26 77.63 76.85 76.65 76.72 77.02 76.74 76.44 76.25 76.30 76.60 76.70 76.93 76.50 76.58 76.57 75.92 75.73 75.30 74.89 74.81 74.47 74.32 74.35 74.51 74.16 74.05 74.19 74.31 72.90 72.95 70.58 73.63 73.12 72.60 72.49 72.50 72.04
76.78 76.92 77.35 78.03 77.95 77.99 77.56 76.87 76.62 76.71 76.89 76.71 76.52 76.10 76.25 76.57 76.64 76.72 76.58 76.38 75.80 75.42 75.22 74.94 74.57 74.45 74.36 74.12 74.46 74.47 74.17 74.44 74.42 74.18 73.34 73.72 69.53 73.22 73.85 73.16 72.53 72.46 72.38
76.08 76.51 77.28 77.62 77.72 77.53 77.48 77.00 76.79 76.89 76.84 76.59 76.50 76.05 76.07 76.49 76.66 76.76 76.68 76.30 75.78 74.85 74.35 74.52 74.89 74.71 74.38 73.90 74.04 74.02 74.25 74.39 73.85 71.80 72.87 72.26 69.52 74.01 74.60 73.30 73.07 73.32 73.07
75.67 76.94 76.65 77.46 77.36 76.93 77.61 77.30 77.17 76.86 76.43 76.52 76.39 76.12 76.05 76.39 76.36 76.54 76.62 76.23 75.66 75.16 75.05 74.73 74.56 74.47 74.52 74.15 73.61 73.85 74.02 74.13 73.49 73.03 74.12 69.66 70.89 73.98 74.63 74.18 73.90 74.06 73.72
76.38 76.24 75.80 77.38 77.22 76.70 77.22 77.17 76.93 76.50 76.33 76.31 76.11 76.04 76.04 76.19 76.24 76.31 76.50 76.33 75.95 75.31 75.18 74.76 74.72 74.33 74.30 74.10 74.20 74.35 74.85 74.24 73.54 72.62 73.69 72.90 72.29 74.47 74.95 74.61 74.32 74.22 74.05
77.48 75.48 74.60 75.66 77.10 77.22 76.93 76.80 76.59 76.34 76.27 76.15 75.85 75.75 75.88 75.95 76.00 76.03 75.99 76.02 75.93 75.30 75.22 75.17 74.53 74.23 74.08 74.15 74.28 74.45 74.18 74.39 72.73 71.64 73.18 73.54 74.05 74.93 74.86 74.71 74.62 74.60 74.60
76.74 74.59 73.61 74.26 75.14 75.80 75.93 76.59 76.46 76.19 75.93 75.68 75.53 75.69 75.64 75.90 75.90 75.73 75.31 75.51 75.55 75.15 74.95 74.97 74.55 74.17 73.95 73.88 73.90 73.88 74.05 74.42 72.31 71.55 71.91 72.27 74.37 75.51 75.27 74.99 74.97 75.02 74.95
75.68 74.56 73.41 72.57 73.28 72.80 73.83 75.76 76.08 75.98 75.79 75.58 75.63 75.61 74.70 73.04 74.17 74.67 74.12 75.35 75.58 74.89 74.50 74.27 74.07 74.17 73.80 73.48 73.63 73.95 73.87 71.39 70.95 71.55 71.80 73.53 74.33 75.38 75.44 75.16 75.33 75.55 75.42
74.38 73.75 73.11 72.24 71.62 71.71 72.10 74.16 73.91 74.35 74.30 74.10 73.79 74.27 72.95 72.64 73.24 72.74 73.70 75.44 75.63 74.87 74.35 74.15 73.75 73.62 72.61 70.01 70.63 73.06 71.54 70.42 70.53 70.66 71.13 73.83 74.44 74.81 74.56 74.32 74.28 74.60 74.85
74.66 74.66 73.37 72.66 72.56 72.23 72.22 72.25 71.92 72.33 72.43 72.74 73.02 73.16 72.85 71.84 73.92 72.16 73.83 73.19 74.10 74.17 72.64 72.90 72.09 71.13 69.33 68.57 68.11 70.03 70.13 69.70 69.34 69.39 72.72 74.44 74.20 74.46 73.85 73.62 73.53 73.85 74.28
73.39 74.92 73.94 73.53 73.38 73.56 73.81 71.69 72.50 72.44 72.53 72.24 72.55 73.51 71.98 73.33 75.32 72.95 72.68 72.99 73.29 73.00 71.79 71.61 69.73 69.22 68.93 69.36 68.85 68.34 70.41 70.32 69.52 69.10 72.71 73.50 73.16 73.37 73.48 73.29 73.25 73.65 73.95
73.55 75.40 73.94 74.05 74.18 75.46 73.65 73.06 73.12 73.28 73.07 73.28 73.60 73.92 72.97 73.54 75.21 75.11 74.78 73.94 72.20 72.54 72.50 71.88 70.96 69.59 69.82 69.82 70.91 70.72 70.19 71.04 69.08 70.54 70.42 73.47 72.52 72.50 73.41 73.40 73.39 73.79 74.34
74.38 73.49 73.98 73.65 74.31 76.51 75.83 74.77 74.96 75.28 74.10 74.86 74.36 74.26 74.82 75.36 75.41 75.10 75.23 74.95 74.12 73.19 73.01 72.14 72.20 73.03 72.51 73.06 71.77 71.64 71.13 69.33 66.17 66.38 69.11 70.67 72.63 71.91 72.83 73.55 74.33 74.31 74.09
73.13 66.10 74.06 75.12 76.24 78.65 79.81 76.66 75.59 76.73 74.49 75.06 76.55 75.17 75.43 76.77 75.57 73.53 74.46 74.09 73.79 73.95 74.01 73.09 72.52 72.31 71.16 70.22 69.46 70.14 69.70 69.79 66.78 63.61 68.23 67.29 69.71 72.17 72.27 72.05 73.50 73.85 73.85
73.02 63.20 69.81 76.21 76.22 77.39 78.97 78.57 77.03 76.92 76.63 74.67 74.62 75.44 75.45 76.75 77.22 76.00 72.81 72.28 73.49 68.45 68.05 66.58 66.78 66.18 66.28 67.07 65.89 66.96 69.06 69.35 66.99 67.83 69.66 66.43 67.86 71.53 70.34 72.49 73.43 73.28 73.33
73.85 69.09 73.05 75.59 75.44 76.19 77.36 78.15 79.10 77.87 75.98 76.96 75.25 73.96 74.73 75.39 76.08 75.32 74.25 72.54 68.82 67.71 65.87 65.29 65.21 64.78 64.40 63.40 63.23 62.89 63.28 65.28 68.90 68.13 68.08 68.23 69.52 70.98 71.02 71.54 72.68 72.39 71.92
70.56 63.02 64.60 74.31 74.97 76.09 76.08 76.92 76.30 76.72 77.40 75.89 74.90 74.62 76.00 74.54 75.65 75.25 73.27 70.33 69.39 68.25 65.93 65.99 64.77 66.32 63.45 61.10 62.51 62.09 61.55 62.37 62.41 65.44 68.29 70.05 70.21 70.53 70.85 68.39 70.05 69.42 70.86
69.40 70.78 66.93 71.77 75.02 74.72 74.89 74.82 74.99 74.46 75.24 75.67 75.87 76.03 75.77 75.59 74.87 72.62 70.82 70.81 69.34 67.02 66.01 65.74 64.75 63.69 64.40 61.75 61.80 60.49 61.13 61.57 63.49 64.11 65.29 68.93 69.44 67.31 67.34 66.92 67.31 66.88 66.57
64.49 63.99 61.46 67.31 73.95 74.85 75.38 75.60 74.62 74.93 74.79 74.77 75.37 74.95 74.87 73.85 73.36 72.23 69.48 68.56 67.95 65.03 64.88 64.54 64.74 62.88 64.21 63.01 62.79 61.45 58.46 60.23 62.87 66.32 67.77 68.01 66.16 67.14 66.86 65.84 64.89 65.81 66.68
66.18 65.23 66.42 72.78 74.90 76.05 75.10 74.12 76.82 75.80 74.12 73.11 73.28 72.79 73.01 72.56 71.75 70.64 70.10 67.81 67.38 67.54 65.19 64.72 64.48 64.99 64.70 65.89 64.41 61.35 58.43 57.57 59.99 63.35 62.02 63.89 63.32 64.01 64.03 64.90 62.10 64.05 62.56
73.38 75.42 75.25 75.44 76.81 75.35 74.48 74.13 74.75 72.56 71.16 72.33 71.45 72.26 71.13 71.25 69.13 69.82 69.32 68.52 68.20 66.49 64.77 64.60 66.53 66.92 65.85 63.54 64.83 64.66 64.23 62.50 57.53 55.19 60.40 60.38 62.23 60.86 61.13 61.98 60.86 61.50 62.04
70.18 73.35 74.42 74.69 75.47 74.29 74.77 75.66 74.65 72.94 72.31 71.69 69.57 67.23 66.73 67.25 67.93 68.31 68.80 68.22 68.15 68.48 68.05 66.93 66.34 65.67 65.38 62.85 61.09 59.55 58.84 57.95 58.55 57.64 54.84 54.76 56.48 57.95 58.62 58.25 60.67 59.77 59.96
68.25 72.41 74.19 73.30 72.04 74.64 75.04 75.54 74.47 71.77 70.28 67.79 66.81 65.54 65.75 65.20 65.29 66.22 65.81 66.62 66.71 67.01 66.56 65.73 65.75 64.07 62.13 61.13 60.10 59.23 57.30 55.75 54.05 53.66 52.36 52.69 53.08 55.10 57.71 58.21 57.93 59.07 60.15
MSLP
1001.04 1002.70 1003.80 1004.31 1004.98 1005.79 1006.44 1007.06 1007.50 1007.90 1008.43 1008.86 1009.27 1009.68 1010.04 1010.31 1010.56 1010.81 1011.02 1011.26 1011.46 1011.71 1011.95 1012.17 1012.40 1012.55 1012.75 1012.91 1013.04 1013.10 1013.09 1013.17 1013.27 1013.34 1013.62 1013.91 1014.11 1014.34 1014.54 1014.62 1014.69 1014.74 1014.97
1000.89 1002.34 1003.63 1004.38 1004.98 1005.77 1006.51 1007.19 1007.82 1008.34 1008.81 1009.13 1009.45 1009.92 1010.35 1010.66 1010.89 1011.21 1011.48 1011.63 1011.81 1011.95 1012.19 1012.41 1012.60 1012.77 1012.94 1013.12 1013.27 1013.41 1013.54 1013.63 1013.66 1013.71 1013.82 1013.98 1014.16 1014.38 1014.54 1014.68 1014.57 1014.93 1015.06
1002.29 1002.60 1003.61 1004.53 1005.06 1005.80 1006.56 1007.21 1007.88 1008.43 1008.91 1009.34 1009.75 1010.17 1010.55 1010.85 1011.17 1011.44 1011.73 1011.88 1012.06 1012.21 1012.39 1012.62 1012.82 1013.00 1013.16 1013.36 1013.54 1013.67 1013.75 1013.81 1013.84 1013.88 1013.89 1013.80 1014.08 1014.43 1014.64 1014.81 1014.97 1015.15 1015.19
1002.96 1003.18 1003.84 1004.80 1005.35 1005.87 1006.63 1007.33 1007.98 1008.51 1008.96 1009.40 1009.87 1010.27 1010.72 1011.19 1011.56 1011.81 1012.00 1012.14 1012.28 1012.41 1012.60 1012.82 1012.98 1013.16 1013.34 1013.51 1013.71 1013.83 1013.91 1013.87 1013.86 1013.94 1013.98 1013.75 1013.54 1014.39 1014.58 1014.80 1014.93 1015.00 1015.10
1003.01 1003.09 1004.28 1005.08 1005.64 1006.15 1006.82 1007.45 1008.15 1008.68 1009.15 1009.54 1010.00 1010.42 1010.84 1011.25 1011.61 1011.93 1012.16 1012.32 1012.45 1012.56 1012.72 1012.92 1013.11 1013.24 1013.43 1013.66 1013.86 1013.97 1013.98 1013.90 1013.94 1013.96 1013.74 1013.30 1013.21 1013.99 1014.38 1014.67 1014.90 1014.96 1014.96
1002.83 1003.43 1004.76 1005.38 1005.74 1006.38 1007.02 1007.52 1008.14 1008.83 1009.25 1009.75 1010.00 1010.28 1010.73 1011.11 1011.44 1011.85 1012.10 1012.32 1012.49 1012.70 1012.90 1013.10 1013.27 1013.44 1013.60 1013.82 1013.96 1013.99 1013.90 1013.79 1013.89 1013.65 1013.27 1012.90 1013.29 1013.94 1014.21 1014.52 1014.66 1014.78 1014.95
1002.83 1004.00 1004.96 1005.73 1006.03 1006.56 1007.18 1007.66 1008.22 1008.81 1009.26 1009.78 1010.22 1010.48 1010.79 1011.20 1011.64 1011.85 1012.06 1012.36 1012.64 1012.92 1013.13 1013.31 1013.58 1013.75 1013.87 1014.03 1014.16 1014.23 1014.13 1014.06 1013.98 1013.45 1012.80 1012.52 1013.14 1013.74 1014.06 1014.22 1014.44 1014.61 1014.77
1002.64 1004.08 1005.05 1005.80 1006.18 1006.83 1007.28 1007.85 1008.35 1008.76 1009.25 1009.68 1010.05 1010.57 1010.94 1011.27 1011.57 1011.96 1012.27 1012.47 1012.65 1012.88 1013.11 1013.40 1013.64 1013.76 1013.93 1014.08 1014.26 1014.39 1014.37 1014.24 1013.86 1013.44 1012.56 1012.56 1013.15 1013.64 1013.73 1014.02 1014.21 1014.40 1014.58
1002.44 1003.85 1004.96 1005.64 1006.29 1006.80 1007.27 1007.85 1008.37 1008.78 1009.32 1009.78 1010.26 1010.63 1011.09 1011.35 1011.71 1012.06 1012.38 1012.61 1012.90 1013.06 1013.20 1013.42 1013.67 1013.86 1013.94 1014.07 1014.21 1014.29 1014.33 1014.28 1014.16 1013.59 1012.77 1012.53 1013.02 1013.32 1013.50 1013.85 1014.20 1014.30 1014.40
1001.95 1003.46 1004.46 1005.33 1006.06 1006.63 1007.30 1007.92 1008.47 1008.96 1009.42 1009.90 1010.32 1010.84 1011.22 1011.59 1011.79 1012.16 1012.50 1012.72 1012.90 1013.18 1013.40 1013.61 1013.76 1013.93 1014.07 1014.13 1014.18 1014.20 1014.32 1014.30 1014.00 1013.60 1012.97 1012.78 1012.80 1013.08 1013.45 1013.78 1014.04 1014.19 1014.30
1001.35 1002.78 1003.79 1004.64 1005.37 1005.71 1006.62 1007.77 1008.33 1008.95 1009.54 1010.01 1010.51 1010.84 1011.29 1011.55 1011.93 1012.19 1012.34 1012.58 1012.89 1013.14 1013.46 1013.68 1013.85 1013.93 1013.99 1014.05 1014.06 1014.17 1014.27 1014.07 1013.63 1012.88 1012.23 1012.25 1012.23 1012.56 1012.94 1013.48 1013.89 1013.94 1013.98
1000.53 1001.80 1002.64 1003.68 1004.38 1004.89 1005.46 1006.79 1007.68 1008.41 1009.03 1009.61 1010.14 1010.80 1011.00 1011.19 1011.40 1011.40 1011.82 1012.46 1012.87 1013.03 1013.29 1013.60 1013.77 1013.91 1014.02 1013.77 1013.59 1013.74 1013.89 1013.58 1013.26 1012.62 1011.95 1012.05 1012.38 1012.27 1012.67 1012.97 1013.32 1013.60 1013.61
998.64 1000.88 1001.25 1002.99 1003.98 1004.38 1005.02 1006.44 1006.82 1007.37 1008.16 1008.99 1009.61 1010.29 1010.63 1010.61 1010.83 1011.16 1011.62 1012.10 1012.62 1013.05 1013.11 1013.28 1013.52 1013.63 1013.52 1013.40 1012.94 1012.95 1013.13 1012.95 1012.66 1012.17 1011.59 1012.03 1012.02 1012.24 1012.41 1012.69 1012.90 1013.18 1013.22
1000.86 1000.03 1001.63 1001.70 1003.24 1004.04 1005.13 1006.13 1006.64 1007.16 1007.37 1008.13 1008.79 1009.61 1010.13 1010.28 1010.46 1010.64 1010.86 1011.35 1011.82 1012.00 1012.25 1012.32 1012.41 1012.42 1012.64 1012.65 1012.56 1012.29 1012.39 1012.22 1012.13 1011.87 1012.05 1012.06 1012.28 1012.23 1012.08 1012.19 1012.39 1012.63 1012.90
999.21 1001.14 1002.13 1002.46 1002.14 1003.45 1004.58 1005.36 1006.00 1006.72 1007.33 1007.34 1007.86 1008.81 1009.58 1009.96 1010.00 1010.44 1010.50 1010.55 1011.22 1011.04 1011.48 1011.60 1011.67 1012.08 1012.16 1012.15 1012.02 1012.09 1012.14 1012.23 1012.47 1012.45 1012.00 1011.87 1011.78 1011.96 1012.00 1011.92 1011.89 1011.97 1012.29
999.06 1002.12 1002.21 1001.99 1002.32 1003.28 1004.18 1004.42 1005.03 1005.94 1006.72 1006.99 1007.24 1007.98 1008.81 1009.27 1009.67 1010.24 1010.45 1010.56 1010.60 1010.54 1011.04 1011.43 1011.74 1012.06 1012.54 1012.54 1012.97 1013.05 1013.24 1013.45 1013.07 1012.93 1013.22 1012.65 1012.64 1012.27 1012.49 1012.93 1012.24 1012.02 1011.97
999.77 1000.52 1003.55 1003.62 1003.73 1004.60 1004.85 1004.66 1004.16 1005.19 1006.29 1006.58 1006.95 1007.46 1008.26 1008.86 1009.33 1010.03 1010.37 1010.60 1010.93 1011.15 1011.43 1011.94 1012.25 1012.64 1013.37 1013.57 1013.74 1013.92 1013.88 1014.11 1013.35 1013.32 1012.79 1013.99 1012.46 1012.88 1012.92 1011.91 1012.49 1012.25 1011.93
1000.63 1003.09 1003.56 1004.62 1004.64 1004.98 1004.90 1005.54 1004.68 1005.27 1005.80 1006.28 1006.69 1007.28 1008.01 1008.55 1009.23 1010.03 1010.93 1011.32 1011.55 1011.75 1012.31 1012.93 1013.34 1013.71 1013.97 1014.00 1014.41 1014.43 1014.42 1013.62 1013.13 1013.41 1013.10 1013.52 1012.61 1012.32 1013.82 1012.75 1012.20 1012.08 1011.66
1001.16 1002.90 1002.56 1003.33 1003.88 1004.67 1005.01 1005.06 1005.57 1005.90 1005.88 1006.50 1006.58 1007.20 1008.14 1008.52 1009.23 1010.00 1011.00 1011.70 1012.19 1012.53 1013.06 1013.40 1013.57 1013.91 1014.29 1014.18 1014.09 1014.45 1014.18 1013.76 1013.39 1012.71 1012.35 1012.32 1012.58 1012.57 1011.71 1011.27 1011.63 1011.47 1011.00
1000.37 1001.27 1004.26 1002.65 1003.49 1004.81 1004.79 1005.04 1005.40 1006.17 1006.39 1006.52 1007.13 1007.50 1008.04 1008.91 1009.54 1010.16 1011.15 1011.92 1012.19 1012.70 1013.22 1013.38 1013.60 1014.11 1014.53 1014.59 1014.51 1014.51 1014.26 1013.28 1012.80 1012.57 1012.44 1011.80 1011.78 1011.20 1011.04 1010.81 1010.82 1010.53 1010.39
999.97 1001.14 1003.38 1002.92 1003.83 1004.32 1004.44 1005.14 1005.75 1006.65 1006.54 1006.94 1007.46 1007.93 1008.58 1009.20 1009.77 1010.36 1011.28 1011.85 1012.27 1012.74 1013.19 1013.59 1014.02 1014.42 1014.65 1014.73 1014.63 1014.99 1014.12 1012.96 1012.43 1012.23 1011.87 1011.61 1011.15 1010.43 1010.32 1010.32 1010.26 1010.26 1010.09
1000.08 999.72 1001.04 1004.03 1003.56 1004.19 1004.41 1005.40 1006.12 1006.70 1006.68 1006.95 1007.94 1008.75 1009.11 1009.78 1010.15 1010.56 1011.52 1012.09 1012.47 1013.03 1013.51 1013.90 1014.04 1014.24 1014.37 1014.50 1014.70 1015.12 1014.63 1013.12 1012.18 1012.11 1011.44 1011.12 1010.90 1010.71 1010.40 1010.23 1010.09 1009.95 1010.03
999.52 1001.04 1000.23 1002.63 1001.73 1003.80 1004.63 1005.78 1006.15 1006.52 1007.00 1007.37 1008.52 1009.21 1009.93 1010.20 1010.68 1011.17 1011.65 1012.26 1012.83 1013.05 1013.45 1013.84 1014.10 1014.12 1014.44 1014.52 1014.61 1014.97 1014.40 1013.71 1013.19 1012.03 1011.71 1011.42 1011.27 1010.86 1010.54 1010.36 1010.14 1010.05 1010.18
997.44 997.86 999.31 1000.08 1002.44 1003.76 1004.73 1005.41 1005.84 1006.32 1006.58 1007.73 1008.83 1009.47 1009.90 1010.36 1011.07 1011.76 1012.16 1012.49 1012.97 1013.15 1013.33 1013.55 1013.71 1014.00 1014.27 1014.35 1014.36 1014.22 1014.28 1014.35 1014.19 1013.21 1012.22 1011.95 1011.49 1011.26 1011.09 1010.90 1010.70 1010.38 1010.34
997.42 998.77 1000.39 1001.74 1003.05 1004.07 1004.81 1005.03 1005.06 1005.49 1006.95 1008.12 1009.21 1009.80 1010.49 1011.23 1011.60 1012.07 1012.45 1012.80 1013.07 1013.10 1013.41 1013.67 1013.94 1014.31 1014.15 1014.44 1014.52 1014.66 1014.60 1014.39 1014.27 1014.48 1013.42 1011.99 1011.91 1011.54 1011.23 1011.01 1010.89 1010.50 1010.04
997.13 998.79 1000.38 1001.87 1003.05 1003.69 1004.05 1004.19 1004.77 1005.81 1007.12 1008.30 1009.14 1009.92 1010.82 1011.35 1012.00 1012.22 1012.82 1013.51 1013.48 1013.59 1013.83 1014.05 1014.20 1014.37 1014.67 1014.87 1014.96 1015.11 1015.22 1015.29 1015.01 1014.53 1013.93 1013.20 1012.51 1011.67 1011.58 1011.08 1010.55 1010.12 1009.76
Wind_Speed
21 21 19 19 19 17 16 15 15 15 14 14 14 13 12 12 12 12 13 12 12 11 11 10 8 7 7 7 9 10 10 10 10 13 12 12 11 9 8 6 2 11 10
24 21 20 19 20 19 18 16 15 14 14 14 14 14 13 12 11 12 11 11 10 11 12 11 9 8 7 7 7 7 8 6 7 8 10 10 10 8 6 6 10 11 10
20 19 19 18 19 20 18 17 16 16 15 15 14 13 13 12 11 11 10 10 10 11 11 10 9 8 7 6 6 6 6 4 4 6 10 8 8 8 6 6 9 9 8
18 15 17 17 18 19 18 17 16 16 16 16 15 14 13 11 10 10 10 10 10 10 10 9 8 8 7 7 6 5 4 4 5 7 6 8 11 12 8 7 7 7 7
17 14 15 17 18 18 18 18 16 15 15 16 15 14 13 13 11 10 9 9 9 10 9 9 8 8 7 7 6 5 4 6 7 8 9 8 8 12 12 9 8 8 6
17 17 17 17 18 17 18 18 17 15 16 15 16 16 15 14 13 10 10 9 9 8 8 7 7 6 6 6 5 5 6 8 7 9 10 5 9 13 12 10 4 5 7
17 17 16 16 17 19 17 18 17 16 16 15 15 15 14 13 12 11 10 9 8 7 6 6 5 4 4 4 4 4 6 8 8 10 11 5 10 14 12 10 8 7 7
19 17 16 17 17 18 17 17 17 17 16 16 16 14 13 13 12 10 9 8 8 7 6 6 5 5 4 4 4 5 7 10 10 11 14 7 14 13 12 10 9 8 8
21 18 16 16 16 17 17 16 16 16 15 14 13 13 12 12 10 9 8 7 6 6 5 5 5 4 4 4 5 6 7 11 9 9 13 6 14 13 11 9 8 8 9
19 19 18 15 15 14 13 15 14 13 13 12 12 11 11 10 9 8 7 6 6 5 4 4 4 4 4 5 6 6 8 11 10 10 10 4 15 13 10 7 8 8 9
17 18 17 17 15 15 15 13 13 14 12 11 10 10 9 7 8 9 9 11 8 6 5 4 4 4 5 6 8 8 9 5 9 9 8 16 16 14 12 8 8 9 10
20 21 18 17 17 16 13 14 11 11 9 8 8 9 6 6 8 9 11 13 10 8 7 6 6 6 6 6 6 12 6 8 7 10 8 14 12 13 11 10 8 9 10
25 17 22 18 15 16 13 10 7 7 7 7 9 9 7 6 5 5 5 6 6 8 5 7 6 5 8 6 8 6 9 10 7 8 4 13 11 10 10 9 9 9 9
15 21 19 22 15 13 12 10 10 9 8 8 9 11 6 4 4 5 5 8 8 7 9 7 7 9 9 9 10 9 9 7 6 2 4 9 8 10 11 10 8 8 9
18 13 21 18 14 9 16 11 10 10 9 10 10 11 7 6 4 4 3 3 7 6 9 5 7 8 8 8 4 6 8 11 15 11 4 11 13 11 11 11 10 10 10
20 12 13 17 10 9 11 14 7 7 10 8 10 12 12 6 4 5 3 3 2 2 5 3 4 6 5 6 7 9 9 7 8 8 7 12 18 8 6 13 10 9 9
13 22 8 1 7 5 4 10 8 6 8 6 5 12 11 6 3 4 2 2 5 7 11 10 10 10 8 7 8 6 5 5 4 3 3 12 13 8 11 15 21 10 10
21 15 16 15 11 6 5 4 5 3 5 4 3 9 9 8 5 2 4 4 8 8 8 8 6 7 7 8 9 9 6 3 2 5 6 7 5 6 17 22 14 13 12
23 24 7 10 15 10 7 5 3 3 4 4 5 6 5 7 7 4 4 5 7 7 6 5 6 5 4 4 4 6 6 6 7 7 7 6 12 14 7 1 12 11 14
14 10 21 14 17 13 7 5 5 2 3 6 5 5 9 6 6 6 5 4 7 6 6 6 7 4 3 3 3 4 7 7 6 7 8 6 9 9 6 6 4 7 13
8 19 11 6 6 8 5 6 5 5 3 5 6 9 8 6 8 7 6 5 4 5 5 5 3 4 2 1 3 4 5 6 10 10 10 9 9 6 4 2 2 3 4
17 20 25 31 16 9 7 5 4 4 4 6 7 7 8 8 7 7 5 4 4 5 5 3 2 2 1 4 2 1 4 5 4 6 6 8 4 4 5 7 6 6 5
23 29 38 26 18 11 12 5 5 6 7 7 7 6 5 7 5 7 6 5 4 2 4 4 3 2 0 2 5 3 3 2 6 2 4 4 6 4 5 5 7 5 5
11 11 17 15 14 10 12 10 10 9 9 7 7 5 6 6 6 4 5 5 4 4 5 4 4 1 1 1 1 2 3 1 2 6 3 6 6 7 7 5 5 5 4
12 14 17 15 13 11 11 11 8 9 8 9 8 10 10 9 7 5 3 5 3 2 5 6 3 2 2 1 2 3 3 3 3 4 10 9 6 5 5 5 5 5 6
13 15 17 16 12 13 10 10 10 14 14 12 10 10 8 8 6 8 7 6 5 5 3 3 2 3 4 3 3 3 3 3 5 4 5 8 10 8 4 6 6 5 5
Wind_Direction
136 141 137 132 132 134 136 136 136 134 133 128 124 119 116 112 112 108 110 111 115 123 124 118 109 95 82 73 68 67 73 82 88 93 99 103 104 102 101 93 61 103 103
134 142 135 133 134 137 139 137 135 132 132 130 127 124 121 121 120 113 114 115 118 121 123 118 116 114 110 99 89 83 85 85 103 120 127 126 123 124 116 88 89 113 115
132 134 136 131 135 139 141 140 139 138 137 133 129 127 126 130 128 121 122 121 123 125 127 124 125 126 125 120 115 112 114 132 164 172 176 164 144 144 129 107 103 115 123
134 137 135 132 136 140 141 140 140 141 140 136 135 134 132 131 130 124 125 126 129 131 132 136 137 138 137 136 137 135 149 202 220 229 225 240 139 154 151 143 136 143 155
133 139 130 135 137 139 141 139 139 143 140 139 138 137 136 137 138 135 134 134 137 138 141 146 148 148 149 150 154 158 195 238 251 259 253 262 132 157 161 163 172 174 182
137 135 136 137 137 140 142 140 140 144 141 144 145 145 147 149 148 148 148 145 145 150 154 156 154 153 155 160 172 188 218 248 275 268 255 118 94 155 164 175 201 181 183
152 126 139 137 137 145 143 142 143 144 144 149 150 151 152 151 154 154 152 151 153 157 160 156 151 155 159 174 192 217 250 276 282 279 280 158 124 160 165 176 193 199 199
138 142 143 141 140 149 145 146 146 148 152 155 154 156 156 155 156 159 158 159 162 163 165 165 168 168 173 185 211 252 279 286 293 292 284 109 145 165 165 181 200 210 218
135 146 152 151 144 144 144 146 150 152 154 154 153 155 158 156 157 157 157 159 162 162 164 169 177 190 195 208 227 246 270 287 291 289 297 138 158 166 170 185 212 223 231
140 149 158 155 157 156 151 147 149 151 151 150 151 152 152 154 152 154 156 164 161 164 173 181 191 208 222 234 245 252 272 286 278 276 284 152 161 168 172 199 226 240 247
149 150 162 160 163 166 157 156 146 151 148 143 146 145 146 180 175 170 197 165 169 170 185 199 213 222 233 244 246 252 262 263 272 272 256 166 167 164 165 185 229 246 251
159 161 164 162 168 169 162 150 164 162 165 172 171 164 185 209 173 203 187 164 172 180 193 210 217 225 238 254 217 227 230 239 255 270 276 164 178 162 171 186 213 241 252
167 164 164 161 171 171 154 153 165 159 162 174 174 160 209 202 184 191 144 166 171 191 204 196 201 223 227 229 255 196 216 225 235 250 243 163 161 164 173 194 218 242 252
183 167 165 158 171 181 138 158 168 164 162 169 175 167 198 222 180 178 179 184 189 176 208 187 203 199 214 225 245 266 218 231 229 260 93 137 173 195 200 206 217 241 262
154 193 158 156 166 184 146 159 175 170 171 179 168 166 186 215 183 177 267 203 185 193 193 216 215 184 205 226 262 317 343 9 13 358 348 183 203 214 214 208 209 216 238
146 124 175 144 153 181 156 156 180 170 174 180 167 168 182 204 183 169 183 275 278 276 87 66 57 42 23 35 26 18 9 20 35 16 331 343 281 256 321 314 247 228 239
114 106 357 90 148 182 186 158 165 162 155 168 160 154 167 190 159 206 60 3 45 47 47 45 29 26 25 14 12 12 351 318 72 5 6 317 317 309 269 221 248 246 247
125 133 195 189 171 180 181 165 155 134 146 158 121 139 158 162 143 18 90 66 70 76 78 71 63 51 32 27 10 354 342 311 32 242 236 234 289 32 306 241 234 240 241
137 129 168 209 166 172 179 163 175 111 124 118 111 133 150 135 117 114 93 91 86 89 86 103 81 94 45 45 36 351 329 327 289 282 299 319 270 254 234 316 221 236 249
125 141 210 206 164 167 160 139 167 142 139 87 90 93 105 114 127 115 117 133 126 129 136 128 120 104 109 88 43 344 310 301 299 302 271 253 267 271 249 239 186 226 249
97 117 66 293 163 159 161 158 151 180 124 101 82 95 103 115 107 123 108 143 113 122 125 119 105 95 109 171 69 326 288 272 283 294 285 271 267 270 288 291 323 344 307
147 149 155 229 185 174 155 150 152 194 143 111 106 105 108 113 128 131 147 125 135 127 120 126 165 140 144 176 142 235 300 308 286 272 246 252 290 327 341 348 328 328 15
185 178 185 181 160 163 149 155 170 127 103 112 114 114 116 120 95 101 128 149 158 181 165 170 169 124 111 163 197 231 301 284 341 331 300 1 345 319 316 326 329 328 335
144 128 120 129 139 147 146 179 172 156 136 123 127 125 121 105 126 121 151 116 197 214 110 173 178 52 146 338 315 7 228 270 304 319 330 333 307 339 333 336 330 311 340
154 140 138 140 145 150 171 174 160 134 111 113 109 101 90 68 48 75 99 177 210 360 62 47 45 354 28 359 28 3 328 340 298 258 290 311 315 302 331 297 323 299 286
153 144 137 140 158 167 167 162 157 125 124 123 122 115 106 105 97 71 51 30 20 50 55 66 30 56 28 13 0 358 315 295 294 278 297 303 305 311 315 306 296 292 305